If you wish to contribute or participate in the discussions about articles you are invited to join SKYbrary as a registered user

 Actions

Lille-Lesquin Airport

From SKYbrary Wiki

LFQQ
Airport
ICAO: LFQQ – IATA: LIL
Summary
Name Lille-Lesquin Airport
Region Europe
Territory France FR.gif
Location , Nord-Pas-de-Calais
Serving Lille
Elevation 47.854 m
157 ft
157 ft47.854 m
Type medium airport
Coordinates 50° 33' 42.99" N, 3° 5' 22.00" E
Runways
Designator Length Width Surface ROPS
2/20 1580 m5,183.727 ft
30 m98.425 ft
ASP yes/yes
8/26 2825 m9,268.373 ft
45 m147.638 ft
ASP yes/yes


METAR
Observation LFQQ 252230Z AUTO 23013KT 9999 FEW024 SCT030 BKN035 05/01 Q0995 TEMPO 25017G27KT BKN020CB
Station Lille
Date/Time 25 February 2020 22:30:00
Wind direction 230°
Wind speed 13 kts
Lowest cloud amount few clouds
Temperature 5°C
Dew point 1°C
Humidity 75%
QNH 995 hPa
Weather condition n/a